Regional Weather Roundup
Issued by NWS Charleston, SC

Current Version | Previous Version | Text Only | Print | Product List | Glossary Off
Versions: 1 2 3 4 5 6 7 8 9 10 11 12 13 14 15 16 17 18 19 20 21 22 23 24 25 26 27 28 29 30 31 32 33 34 35 36 37 38 39 40 41 42 43 44 45 46 47 48 49 50
000 ASUS42 KCHS 250326 RWRCHS Regional Weather Roundup National Weather Service Charleston SC 1100 PM EDT FRI MAY 24 2019 NOTE: "fair" indicates few or no clouds below 12,000 feet with no significant weather and/or obstructions to visibility. Not all stations are quality controlled. Use data with caution, especially dewpoint observations. SCZ027-030-031-034>040-042>050-250400- ...Southeast South Carolina... CITY SKY/WX TMP DP RH WIND PRES REMARKS N Charleston FAIR 79 72 79 SW6 30.09R Waterfront Prk N/A 81 74 79 SW6 29.93 Mount Pleasant MOCLDY 81 73 78 CALM 30.08S Johns Island FAIR 79 75 89 CALM 30.09S Pinopolis N/A 84 70 61 CALM 30.01R Moncks Corner FAIR 75 64 69 CALM 30.08S Summerville FAIR 77 72 83 S3 30.10S Beaufort MCAS FAIR 81 74 79 S5 30.10R Beaufort Arpt FAIR 79 73 83 SW3 30.09S Hilton Head Is FAIR 81 73 78 SW6 30.11S Walterboro FAIR 79 72 78 CALM 30.10S Allendale FAIR 79 68 69 CALM 30.09S ...Southern Midlands and Pee Dee... CITY SKY/WX TMP DP RH WIND PRES REMARKS Georgetown FAIR 75 68 78 CALM 30.08S Kingstree FAIR 73 73 100 CALM 30.08S Orangeburg FAIR 77 69 76 CALM 30.10R Barnwell FAIR 77 68 73 CALM 30.10S Aiken FAIR 77 68 73 CALM 30.14S Manning FAIR 73 70 88 CALM 30.09S Columbia FAIR 80 67 64 SW3 30.08R Sumter FAIR 78 66 66 CALM 30.09R Florence FAIR 78 66 66 CALM 30.08R Myrtle Beach FAIR 82 70 66 CALM 30.07R N Myrtle Beach FAIR 75 72 90 CALM 30.06R $$ GAZ063-065-086>088-099>101-113>116-118-119-134>141-150-250400- ...Southeast Georgia... CITY SKY/WX TMP DP RH WIND PRES REMARKS Savannah Arpt FAIR 80 72 76 S3 30.11R Hunter AAF FAIR 79 70 74 S3 30.09R Fort Stewart FAIR 79 69 70 S3 30.09R Statesboro FAIR 76 66 71 CALM 30.10S Sylvania FAIR 79 68 69 CALM 30.11S Claxton FAIR 75 70 86 SE5 30.11R Millen FAIR 77 71 81 CALM 30.10S ...CSRA, Central and far Southeast Georgia... CITY SKY/WX TMP DP RH WIND PRES REMARKS Thomson FAIR 76 71 86 MISG 30.11S Augusta-Bush FAIR 77 70 79 CALM 30.09R Augusta-Daniel FAIR 87 65 47 CALM 30.11R Swainsboro FAIR 77 68 73 CALM 30.12S Vidalia FAIR 81 61 50 CALM 30.11S Eastman FAIR 73 68 85 CALM 30.14R Hazlehurst FAIR 78 67 67 CALM 30.10S Alma FAIR 74 68 81 CALM 30.10S Waycross FAIR 81 60 48 SW5 30.12R Jesup FAIR 79 68 69 CALM 30.12 Baxley FAIR 73 68 83 CALM 30.11R Brunswick FAIR 75 68 77 CALM 30.11S Saint Simons FAIR 80 66 62 S5 30.11R $$ SCZ027-028-034-036>038-045-046-048>050-GAZ119-141-250400- ...Lake and Supplemental Coastal Observations... STATION/POSITION TIME TEMP WIND PRES WAVE SWELL AIR SEA DIR/SP/G HT/PER HT/PER/DIR (UTC) (F) (DEG/KT/KT) (MB) (FT/S) (FT/S/D) Winyah Bay 0245 80 CALM 1018.0R Lake Murray 0250 83 CALM 1018.3R ACE Basin NERRS 0230 79 CALM 1019.0S Fort Pulaski 0254 79 79 230/ 4/ 7 1019.9R Sapelo Island 0300 77 200/ 4 1019.0 $$ ANZ835-935-AMZ111-154-330-350-352-354-370-450-454-472-250400- ...C-MAN and Buoy Observations... STATION/POSITION TIME TEMP WIND PRES WAVE SWELL AIR SEA DIR/SP/G HT/PER HT/PER/DIR (UTC) (F) (DEG/KT/KT) (MB) (FT/S) (FT/S/D) Buoy 41004 0310 78 240/ 12/ 14 1018.9 Buoy 41008 0250 79 79 200/ 10/ 12 1019.6R 2/ 7 2/ 90/ 7 Folly Beach CMAN 0300 80 230/ 7/ 10 1019.3S Capers Nearshore 0308 79 78 240/ 10/ 14 1018.5R Fripp Nearshore NOT AVBL STATION/POSITION TIME TEMP WIND PRES WAVE SWELL AIR SEA DIR/SP/G HT/PER HT/PER/DIR (UTC) (F) (DEG/KT/KT) (MB) (FT/S) (FT/S/D) 5E St. Marys GA 0300 80 N/A 3/ 7 Frying Pan Buoy 0310 78 240/ 10/ 12 1018.2 Buoy 41025 NOT AVBL Cape Lookout NC 0300 77 50/ 21/ 23 1018.7R Buoy 41002 NOT AVBL Buoy 41010 0310 77 79 60/ 8/ 10 1020.7 St Augustine FL 0300 78 82 150/ 8/ 9 1020.4S $$

USA.gov is the U.S. government's official web portal to all federal, state and local government web resources and services.